#timestamp,LO_Frequency,Hit 
1498402815.8,286047001.6,N
1498402835.6,286047002.1,N
1498402855.5,286047002.6,N
1498402875.3,286047001.0,N
1498402895.1,286046999.7,N
1498402915.9,286047002.1,N
1498402935.7,286046999.8,N
1498402955.5,286047000.2,N
1498402975.4,286047000.2,N
1498402995.2,286047000.4,N
1498403015.0,286047000.3,N
1498403016.0,286047000.3,N
1498403035.8,286047001.2,N
1498403055.6,286047000.8,N
1498403075.5,286047000.6,N
1498403095.3,286047000.4,N
1498403115.1,286047001.9,N
1498403135.9,286047004.4,N
1498403155.7,286047002.2,N
1498403175.5,286047002.1,N
1498403195.4,286047002.3,N
1498403215.2,286047002.4,N
1498403235.1,286047000.6,N
1498403236.0,286047000.6,N
1498403255.8,286047000.1,N
1498403275.6,286046999.8,N
1498403295.5,286047002.5,N
1498403315.3,286047001.3,N
1498403335.1,286047002.1,N
1498403355.9,286047001.5,N
1498403375.7,286047001.7,N
1498403395.6,286047001.5,N
1498403415.4,286047003.7,N
1498403435.2,286047001.9,N
1498403455.1,286047001.9,N
1498403456.0,286047001.9,N
1498403475.8,286047002.1,N
1498403495.7,286047002.5,N
1498403515.5,286047004.4,N
1498403535.3,286047001.7,N
1498403555.2,286047001.6,N
1498403575.0,286047002.4,N
1498403575.9,286047002.4,N
1498403595.7,286047001.9,N
1498403615.6,286046999.8,N
1498403635.4,286047002.4,N
1498403655.3,286047000.1,N
1498403675.1,286046999.9,N
1498403676.0,286046999.9,N
1498403695.8,286047000.5,N
1498403715.7,286047000.2,N
1498403735.5,286047001.6,N
1498403755.3,286047001.3,N
1498403775.2,286047001.9,N
1498403795.0,286047001.6,N
1498403795.9,286047001.6,N
1498403815.8,286047001.9,N
1498403835.6,286047001.4,N
1498403855.4,286047001.8,N
1498403875.3,286047004.2,N
1498403895.1,286047004.4,N
1498403915.9,286047003.0,N
1498403935.7,286047003.2,N
1498403955.5,286047003.2,N
1498403975.4,286047003.0,N
1498403995.2,286047003.6,N
1498404015.0,286047004.1,N
1498404015.9,286047004.1,N
1498404035.8,286047005.9,N
1498404055.6,286047005.7,N
1498404075.5,286047005.1,N
1498404095.3,286047011.9,N
1498404115.1,286047005.4,N
1498404135.9,286047003.3,N
1498404155.7,286047003.3,N
1498404175.5,286047004.8,N
1498404195.4,286047005.4,N
1498404215.2,286047005.7,N
1498404235.1,286047003.2,N
1498404236.0,286047003.2,N
1498404255.8,286047003.6,N
1498404275.6,286047002.9,N
1498404295.5,286047003.1,N
1498404315.3,286047003.3,N
1498404335.2,286047005.4,N
1498404355.9,286047005.4,N
1498404375.7,286047004.6,N
1498404395.6,286047005.1,N
1498404415.4,286047004.9,N
1498404435.2,286047005.1,N
1498404455.1,286047006.6,N
1498404456.0,286047006.6,N
1498404475.8,286047007.5,N
1498404495.7,286047007.5,N
1498404515.5,286047004.6,N
1498404535.3,286047002.9,N
1498404555.2,286047007.2,N
1498404575.9,286047005.8,N
1498404595.7,286047002.9,N
1498404615.6,286047007.1,N
1498404635.4,286047003.4,N
1498404655.3,286047004.1,N
1498404675.1,286047006.0,N
1498404676.0,286047006.0,N
1498404695.8,286047005.7,N
1498404715.7,286047004.8,N
1498404735.5,286047004.9,N
1498404755.3,286047005.8,N
1498404775.2,286047003.3,N
1498404795.0,286047003.2,N
1498404795.9,286047003.2,N
1498404815.8,286047004.0,N
1498404835.6,286047003.6,N
1498404855.4,286047005.8,N
1498404875.3,286047005.5,N
1498404895.1,286047002.9,N
1498404915.8,286047003.5,N
1498404935.7,286047003.4,N
1498404955.5,286047002.9,N
1498404975.4,286047003.1,N
1498404995.2,286047003.0,N
1498405015.0,286047002.9,N
1498405015.9,286047002.9,N
1498405035.8,286047003.2,N
1498405055.6,286047005.8,N
1498405075.4,286047005.9,N
1498405095.3,286047005.8,N
1498405115.1,286047005.5,N
1498405135.9,286047005.1,N
1498405155.7,286047003.2,N
1498405175.5,286047003.1,N
1498405195.4,286047005.1,N
1498405215.2,286047003.0,N
1498405235.1,286047005.8,N
1498405236.0,286047005.8,N
1498405255.8,286047005.2,N
1498405275.6,286047005.6,N
1498405295.5,286047004.6,N
1498405315.3,286047005.3,N
1498405335.1,286047005.1,N
1498405355.9,286047007.5,N
1498405375.7,286047005.1,N
1498405395.6,286047005.9,N
1498405415.4,286047005.7,N
1498405435.2,286047007.6,N
1498405455.1,286047007.3,N
1498405456.0,286047007.3,N
1498405475.8,286047003.0,N
1498405495.6,286047005.8,N
1498405515.5,286047005.4,N
1498405535.3,286047003.0,N
1498405555.2,286047003.9,N
1498405575.9,286047004.3,N
1498405595.7,286047003.6,N
1498405615.6,286047003.8,N
1498405635.4,286047003.3,N
1498405655.3,286047004.4,N
1498405675.1,286047001.4,N
1498405676.0,286047001.4,N
1498405695.8,286047004.2,N
1498405715.7,286047003.1,N
1498405735.5,286047002.0,N
1498405755.3,286047001.3,N
1498405775.2,286047001.7,N
1498405795.0,286047004.0,N
1498405795.9,286047004.0,N
1498405815.8,286047004.3,N
1498405835.6,286047004.0,N
1498405855.4,286047003.9,N
1498405875.3,286047001.6,N
1498405895.1,286047003.7,N
1498405915.8,286047003.6,N
1498405935.7,286047004.4,N
1498405955.5,286047003.4,N
1498405975.4,286047004.0,N
1498405995.2,286047004.4,N
1498406015.0,286047001.4,N
1498406015.9,286047001.4,N
1498406035.8,286047001.7,N
1498406055.6,286047001.7,N
1498406075.4,286047002.6,N
1498406095.3,286047002.2,N
1498406115.1,286047001.3,N
1498406135.9,286047001.4,N
1498406155.7,286047002.0,N
1498406175.5,286047002.1,N
1498406195.4,286047002.2,N
1498406215.2,286047002.2,N
1498406235.0,286047002.1,N
1498406236.0,286047002.1,N
1498406255.8,286047002.3,N
1498406275.6,286047004.0,N
1498406295.5,286047001.8,N
1498406315.3,286047003.7,N
1498406335.1,286047001.7,N
1498406355.9,286047002.1,N
1498406375.7,286047002.1,N
1498406395.5,286047002.4,N
